ABS-6

Last updated on Thu Jul 03 2025 00:02:44 GMT+0000 (Coordinated Universal Time)

1 25924U 99053A 25183.47044037 -.00000112 00000+0 00000+0 0 9999 2 25924 0.0251 289.9542 0003351 174.4754 144.6993 1.00272293 94336
UTC large
Height (km)
Speed (km/s)
/
Latitude / Longitude
Inclination (degrees)
Orbital Period (minutes)
Azimuth
Elevation
Range (km)
Doppler Factor

Next 0 passes for location: London (51.5072 / 0.1276)

Sorry there are no passes over London.